Weather observations for the past three days for
Odessa, Odessa-Schlemeyer Field
Metric (Imperial)
Date Time (cdt) Wind (kph) Vis. (km) Weather Sky Cond. Temperature (ºC) Relative Humidity Wind Chill (°C) Heat Index (°C) Pressure Precipitation (cm)
Air Dwpt 6 hour altimeter (cm) sea level (mb) 1 hr 3 hr 6 hr
Max. Min.
24 22:53 E 17 16.09 Fair CLR 26.7 -3.3 14% 26 75.82 1005.5
24 21:53 E 15 16.09 Fair CLR 26.1 -1.7 16% 25 75.79 1005.1
24 20:53 E 13 16.09 Fair CLR 28.3 -1.7 14% 27 75.77 1005.1
24 19:53 E 13 16.09 Fair CLR 32.8 -5 8% 30 75.74 1004.7
24 18:53 NE 9 16.09 Fair CLR 33.3 -6.1 34.4 30.6 7% 31 75.74 1005.0
24 17:53 Vrbl 6 16.09 Fair CLR 33.3 -5.6 8% 31 75.77 1005.1
24 16:53 N 7 16.09 Fair CLR 33.9 -5 8% 31 75.82 1005.7
24 15:53 Vrbl 9 G 30 16.09 Fair CLR 33.3 -5.6 8% 31 75.87 1006.1
24 14:53 N 9 16.09 Fair CLR 32.8 -3.9 9% 30 75.9 1006.7
24 13:53 N 15 16.09 Fair CLR 32.2 -3.3 10% 30 75.92 1007.1
24 12:53 N 15 G 35 16.09 Fair CLR 31.1 -4.4 32.2 16.7 10% 29 75.95 1007.4
24 11:53 NE 22 G 39 16.09 Fair CLR 31.1 -5.6 9% 29 75.95 1007.2
24 10:53 N 17 G 37 16.09 Fair CLR 31.1 -8.9 7% 29 75.92 1006.9
24 09:53 NW 22 16.09 Fair CLR 29.4 -9.4 7% 28 75.9 1006.6
24 08:53 Calm 16.09 Fair CLR 24.4 -6.7 12% 24 75.87 1006.1
24 07:53 S 11 16.09 Fair CLR 21.1 -7.2 14% 75.82 1005.6
24 06:53 S 9 16.09 Fair CLR 16.7 -1.7 24.4 16.1 29% 75.74 1004.9
24 05:53 SW 9 16.09 Fair CLR 18.9 -1.1 26% 75.72 1004.3
24 04:53 W 7 16.09 Fair CLR 19.4 -2.8 22% 75.72 1004.1
24 03:53 S 9 16.09 Fair CLR 21.7 -8.9 12% 75.72 1004.1
24 02:53 SW 6 16.09 Fair CLR 23.3 -11.7 9% 75.72 1003.8
24 01:53 W 7 16.09 Fair CLR 23.3 -8.3 11% 75.64 1003.2
24 00:53 Calm 16.09 Fair CLR 23.9 -9.4 35.6 23.9 10% 24 75.64 1003.1
23 23:53 W 11 16.09 Fair CLR 23.9 -8.3 11% 24 75.64 1003.3
23 22:53 W 9 16.09 Fair CLR 26.7 -10.6 8% 26 75.64 1003.2
23 21:53 W 9 16.09 Fair CLR 28.3 -11.1 7% 27 75.62 1002.8
23 20:53 W 20 16.09 Fair CLR 32.2 -13.9 4% 30 75.57 1002.0
23 19:53 W 20 G 39 16.09 Fair CLR 34.4 -13.9 4% 32 75.51 1001.5
23 18:53 W 22 G 46 16.09 Fair CLR 35 -14.4 36.1 33.3 3% 32 75.54 1001.7
23 17:53 W 30 G 46 16.09 Fair CLR 35.6 -12.8 4% 33 75.54 1001.8
23 16:53 W 24 G 43 16.09 Fair CLR 35.6 -12.8 4% 33 75.62 1002.7
23 15:53 SW 37 G 54 16.09 Fair and Breezy CLR 36.1 -13.3 4% 33 75.67 1003.4
23 14:53 W 24 G 44 16.09 Fair CLR 35 -9.4 5% 32 75.72 1004.0
23 13:53 W 17 G 37 16.09 Fair CLR 33.9 -3.9 8% 31 75.77 1004.8
23 12:53 W 24 G 46 16.09 Fair CLR 33.9 -2.8 33.9 20 9% 31 75.79 1005.2
23 11:53 W 20 16.09 Fair CLR 32.8 -2.2 10% 30 75.84 1005.8
23 10:53 W 20 16.09 Fair CLR 30.6 10.6 29% 29 75.87 1006.1
23 09:53 SW 22 12.87 Fair CLR 27.8 17.2 53% 28 75.9 1006.6
23 08:53 SW 17 8.05 Fair with Haze CLR 24.4 20 77% 25 75.87 1006.6
23 07:53 S 7 9.66 Fair with Haze CLR 21.7 18.9 84% 75.84 1006.1
23 06:53 S 9 9.66 Fog/Mist SCT015 OVC022 20 17.8 23.3 19.4 87% 75.84 1006.2
23 05:53 Calm 11.27 Fair CLR 19.4 17.2 87% 75.84 1006.1
23 04:53 SE 9 14.48 Fair CLR 20 17.2 84% 75.82 1005.8
23 03:53 SE 11 16.09 Fair CLR 20.6 16.7 78% 75.84 1006.2
23 02:53 SE 11 16.09 Fair CLR 21.1 16.7 76% 75.87 1006.4
23 01:53 SE 20 16.09 Fair CLR 21.7 16.1 71% 75.9 1006.8
23 00:53 SE 20 16.09 Fair CLR 23.3 18.3 34.4 22.8 74% 75.9 1006.9
22 23:53 SE 20 16.09 Fair CLR 24.4 19.4 74% 25 75.92 1007.1
22 22:53 E 22 16.09 Fair CLR 25.6 18.3 64% 27 75.9 1007.0
22 21:53 E 22 16.09 Fair CLR 26.1 17.2 58% 27 75.84 1006.2
22 20:53 E 20 G 43 16.09 Partly Cloudy SCT060 27.8 17.2 53% 28 75.82 1005.7
22 19:53 N 13 16.09 Fair CLR 33.3 -1.1 11% 31 75.74 1004.3
22 18:53 NW 17 16.09 Fair CLR 34.4 -0.6 35.6 30 11% 32 75.72 1004.0
22 17:53 W 22 16.09 Fair CLR 35 1.7 12% 32 75.72 1003.9
22 16:53 NW 13 G 35 16.09 Fair CLR 34.4 8.9 21% 32 75.77 1004.8
22 15:53 NW 17 G 33 16.09 Fair CLR 33.3 11.7 27% 32 75.79 1005.3
22 14:53 NW 6 16.09 Fair CLR 32.2 12.8 31% 31 75.87 1006.2
22 13:53 N 11 16.09 Fair CLR 31.7 16.7 41% 32 75.92 1007.0
22 12:53 NE 13 16.09 Fair CLR 30.6 16.1 30.6 23.3 42% 31 75.97 1007.6
22 11:53 NE 17 16.09 Fair CLR 28.3 13.3 40% 28 76 1008.1
22 10:53 NE 22 16.09 Fair CLR 25.6 9.4 36% 26 76 1008.2
22 09:53 N 19 16.09 Overcast BKN018 BKN037 OVC048 25.6 16.1 56% 26 76 1008.0
22 08:53 SW 22 8.05 Fair with Haze CLR 25.6 21.7 79% 27 75.92 1007.0
22 07:53 S 17 9.66 Fair with Haze CLR 24.4 19.4 74% 25 75.9 1006.6
22 06:53 S 15 9.66 Fair with Haze CLR 23.9 18.9 24.4 21.1 74% 25 75.84 1005.8
22 05:53 S 19 11.27 Fair CLR 23.9 18.3 71% 25 75.82 1005.5
22 04:53 SW 7 16.09 Fair CLR 21.1 8.9 46% 75.82 1005.7
22 03:53 SW 9 16.09 Fair CLR 22.2 10 46% 75.82 1005.8
22 02:53 Calm 16.09 Fair CLR 23.3 8.3 38% 75.82 1005.5
22 01:53 SE 13 16.09 Fair CLR 22.8 3.3 28% 75.84 1005.8
22 00:53 SE 15 16.09 Fair CLR 23.9 3.3 32.2 23.3 26% 25 75.87 1006.1
21 23:53 SE 7 16.09 Fair CLR 24.4 2.2 23% 25 75.84 1005.9
Date Time (cdt) Wind (kph) Vis. (km) Weather Sky Cond. Air Dwpt Max. Min. Relative Humidity Wind Chill (°C) Heat Index (°C) altimeter (cm) sea level (mb) 1 hr 3 hr 6 hr
6 hour
Temperature (ºC) Pressure Precipitation (cm)